QPF
0.00 0.00 0.00 0.00 0.00 0.00 0.00 0.00 0.00 0.00 0.00 0.00 0.00 0.00 0.00 0.00 0.00 0.00 0.00 0.00 0.00 0.00 0.00 0.00 0.00 0.00 0.00 0.00 0.00 0.00 0.00 0.00 0.01 0.03 0.06 0.06 0.07 0.07
0.00 0.00 0.00 0.00 0.00 0.00 0.00 0.00 0.00 0.00 0.00 0.00 0.00 0.00 0.00 0.00 0.00 0.00 0.00 0.00 0.00 0.00 0.00 0.00 0.00 0.00 0.00 0.00 0.00 0.00 0.00 0.00 0.00 0.00 0.00 0.00 0.00 0.00
0.00 0.00 0.00 0.00 0.00 0.00 0.00 0.00 0.00 0.00 0.00 0.00 0.00 0.00 0.00 0.00 0.00 0.00 0.00 0.00 0.00 0.00 0.00 0.00 0.00 0.00 0.00 0.00 0.00 0.00 0.00 0.00 0.00 0.00 0.00 0.00 0.00 0.00
0.00 0.00 0.00 0.00 0.00 0.00 0.00 0.00 0.00 0.00 0.00 0.00 0.00 0.00 0.00 0.00 0.00 0.00 0.00 0.00 0.00 0.00 0.00 0.01 0.01 0.02 0.01 0.01 0.01 0.00 0.00 0.00 0.00 0.00 0.00 0.00 0.00 0.00
0.00 0.00 0.00 0.00 0.00 0.00 0.00 0.00 0.00 0.00 0.00 0.00 0.00 0.00 0.00 0.00 0.00 0.00 0.00 0.00 0.00 0.00 0.01 0.02 0.02 0.01 0.00 0.00 0.00 0.00 0.00 0.00 0.00 0.00 0.00 0.00 0.00 0.00
0.00 0.00 0.00 0.00 0.00 0.00 0.00 0.00 0.00 0.00 0.00 0.00 0.00 0.00 0.00 0.00 0.00 0.00 0.00 0.00 0.00 0.00 0.00 0.00 0.00 0.00 0.00 0.00 0.00 0.00 0.00 0.00 0.00 0.00 0.00 0.00 0.00 0.00
0.00 0.00 0.00 0.00 0.00 0.00 0.00 0.00 0.00 0.00 0.00 0.00 0.00 0.00 0.00 0.00 0.00 0.00 0.00 0.00 0.00 0.00 0.00 0.00 0.00 0.00 0.00 0.00 0.00 0.00 0.00 0.00 0.00 0.00 0.00 0.00 0.00 0.00
0.00 0.00 0.00 0.00 0.00 0.00 0.00 0.00 0.00 0.00 0.00 0.00 0.00 0.00 0.00 0.00 0.00 0.00 0.00 0.00 0.00 0.00 0.00 0.00 0.00 0.00 0.00 0.00 0.00 0.00 0.00 0.00 0.00 0.00 0.00 0.00 0.00 0.00
0.00 0.00 0.00 0.00 0.00 0.00 0.00 0.00 0.00 0.00 0.00 0.00 0.00 0.00 0.00 0.00 0.00 0.00 0.00 0.00 0.00 0.00 0.00 0.00 0.00 0.00 0.00 0.00 0.00 0.00 0.00 0.00 0.00 0.00 0.00 0.00 0.00 0.00
0.00 0.00 0.00 0.00 0.00 0.00 0.00 0.00 0.00 0.00 0.00 0.00 0.00 0.00 0.00 0.00 0.00 0.00 0.00 0.00 0.00 0.00 0.00 0.00 0.00 0.00 0.00 0.00 0.00 0.00 0.00 0.00 0.00 0.00 0.00 0.00 0.00 0.00
0.00 0.00 0.00 0.00 0.00 0.00 0.00 0.00 0.00 0.00 0.00 0.00 0.00 0.00 0.00 0.00 0.00 0.00 0.00 0.00 0.00 0.00 0.00 0.00 0.00 0.00 0.00 0.00 0.00 0.00 0.00 0.00 0.00 0.00 0.00 0.00 0.00 0.00
0.00 0.00 0.00 0.00 0.00 0.00 0.00 0.00 0.00 0.00 0.00 0.00 0.00 0.00 0.00 0.00 0.00 0.00 0.00 0.00 0.00 0.00 0.00 0.00 0.00 0.00 0.00 0.00 0.00 0.00 0.00 0.00 0.00 0.00 0.00 0.00 0.00 0.00
0.00 0.00 0.00 0.00 0.00 0.00 0.00 0.00 0.00 0.00 0.00 0.00 0.00 0.00 0.00 0.00 0.00 0.00 0.00 0.00 0.00 0.00 0.00 0.00 0.00 0.00 0.00 0.00 0.00 0.00 0.00 0.00 0.00 0.00 0.00 0.00 0.00 0.00
0.00 0.00 0.00 0.00 0.00 0.00 0.00 0.00 0.00 0.00 0.00 0.00 0.00 0.00 0.00 0.00 0.00 0.00 0.00 0.00 0.00 0.00 0.00 0.00 0.00 0.00 0.00 0.00 0.00 0.00 0.00 0.00 0.00 0.00 0.00 0.00 0.00 0.00
0.00 0.00 0.00 0.00 0.00 0.00 0.00 0.00 0.00 0.00 0.00 0.00 0.00 0.00 0.00 0.00 0.00 0.00 0.00 0.00 0.00 0.00 0.00 0.00 0.00 0.00 0.00 0.00 0.00 0.00 0.00 0.00 0.00 0.00 0.00 0.00 0.00 0.00
0.00 0.00 0.00 0.00 0.00 0.00 0.00 0.00 0.00 0.00 0.00 0.00 0.00 0.00 0.00 0.00 0.00 0.00 0.00 0.00 0.00 0.00 0.00 0.00 0.00 0.00 0.00 0.00 0.00 0.00 0.00 0.00 0.00 0.00 0.00 0.00 0.00 0.00
0.00 0.00 0.00 0.00 0.00 0.00 0.00 0.00 0.00 0.00 0.00 0.00 0.00 0.00 0.00 0.00 0.00 0.00 0.00 0.00 0.00 0.00 0.00 0.00 0.00 0.00 0.00 0.00 0.00 0.00 0.00 0.00 0.00 0.00 0.00 0.00 0.00 0.00
0.00 0.00 0.00 0.00 0.00 0.00 0.00 0.00 0.00 0.00 0.00 0.00 0.00 0.00 0.00 0.00 0.00 0.00 0.00 0.00 0.00 0.00 0.00 0.00 0.00 0.00 0.00 0.00 0.00 0.00 0.00 0.00 0.00 0.00 0.00 0.00 0.00 0.00
0.00 0.00 0.00 0.00 0.00 0.00 0.00 0.00 0.00 0.00 0.00 0.00 0.00 0.00 0.00 0.00 0.00 0.00 0.00 0.00 0.00 0.00 0.00 0.00 0.00 0.00 0.00 0.00 0.00 0.00 0.00 0.00 0.00 0.00 0.00 0.00 0.00 0.00
0.00 0.00 0.00 0.00 0.00 0.00 0.00 0.00 0.00 0.00 0.00 0.00 0.00 0.00 0.00 0.00 0.00 0.00 0.00 0.00 0.00 0.00 0.00 0.00 0.00 0.00 0.00 0.00 0.00 0.00 0.00 0.00 0.00 0.00 0.00 0.00 0.00 0.00
0.00 0.00 0.00 0.00 0.00 0.00 0.00 0.00 0.00 0.00 0.00 0.00 0.00 0.00 0.00 0.00 0.00 0.00 0.00 0.00 0.00 0.00 0.00 0.00 0.00 0.00 0.00 0.00 0.00 0.00 0.00 0.00 0.00 0.00 0.00 0.00 0.00 0.00
0.00 0.00 0.00 0.00 0.00 0.00 0.00 0.00 0.00 0.00 0.00 0.00 0.00 0.00 0.00 0.00 0.00 0.00 0.00 0.00 0.00 0.00 0.00 0.00 0.00 0.00 0.00 0.00 0.00 0.00 0.00 0.00 0.00 0.00 0.00 0.00 0.00 0.00
0.00 0.00 0.00 0.00 0.00 0.00 0.00 0.00 0.00 0.00 0.00 0.00 0.00 0.00 0.00 0.00 0.00 0.00 0.00 0.00 0.00 0.00 0.00 0.00 0.00 0.00 0.00 0.00 0.00 0.00 0.00 0.00 0.00 0.00 0.00 0.00 0.00 0.00
MSLP
1012.21 1012.46 1012.88 1013.08 1013.30 1013.60 1014.21 1014.85 1015.44 1016.49 1016.60 1016.47 1016.43 1016.46 1016.63 1016.92 1017.13 1017.63 1017.99 1018.40 1018.77 1019.08 1019.43 1019.77 1020.07 1020.37 1020.66 1020.88 1021.11 1021.25 1021.49 1021.69 1021.66 1021.81 1021.64 1021.56 1021.70 1021.57
1011.91 1012.21 1012.63 1012.87 1013.21 1013.59 1014.05 1014.56 1015.10 1015.45 1015.79 1015.73 1015.73 1015.73 1015.78 1016.10 1016.58 1017.20 1017.38 1017.79 1018.08 1018.41 1018.73 1019.12 1019.38 1019.70 1020.02 1020.19 1020.35 1020.54 1020.70 1020.90 1020.94 1021.00 1021.01 1021.00 1020.92 1020.80
1011.56 1011.84 1012.18 1012.60 1012.98 1013.43 1013.76 1014.15 1014.63 1014.88 1015.17 1015.10 1015.19 1015.45 1015.69 1015.98 1016.32 1016.82 1016.92 1017.17 1017.52 1017.97 1018.23 1018.40 1018.62 1018.89 1019.07 1019.42 1019.74 1019.95 1020.17 1020.41 1020.44 1020.54 1020.51 1020.47 1020.49 1020.42
1010.98 1011.39 1011.70 1012.05 1012.39 1012.84 1013.24 1013.53 1013.81 1014.14 1014.59 1014.85 1015.06 1015.21 1015.34 1015.67 1016.20 1016.66 1016.42 1016.49 1016.85 1017.08 1017.51 1017.73 1017.81 1018.53 1019.04 1019.20 1019.46 1019.66 1019.85 1020.10 1020.18 1020.21 1020.18 1020.20 1020.20 1020.11
1010.41 1010.71 1011.08 1011.46 1011.81 1012.11 1012.50 1012.69 1013.13 1013.55 1014.04 1014.41 1014.69 1015.06 1015.26 1015.50 1016.03 1016.25 1016.27 1016.23 1016.24 1016.47 1016.83 1017.87 1018.01 1018.42 1018.65 1019.03 1019.19 1019.34 1019.66 1019.78 1019.88 1019.76 1019.79 1019.77 1019.79 1019.83
1009.97 1010.20 1010.46 1010.86 1011.25 1011.66 1012.00 1012.39 1012.56 1012.80 1013.40 1013.78 1014.16 1014.59 1014.80 1015.04 1015.36 1015.68 1015.91 1015.92 1015.94 1016.52 1017.60 1018.12 1018.54 1019.14 1019.56 1019.52 1019.55 1019.77 1019.98 1020.02 1019.99 1020.02 1020.36 1020.45 1020.66 1020.47
1009.63 1009.94 1010.15 1010.45 1010.81 1011.25 1011.78 1012.07 1012.20 1012.52 1012.94 1013.42 1013.76 1014.09 1014.44 1014.71 1014.84 1014.91 1015.33 1015.61 1016.17 1016.64 1017.89 1018.71 1019.10 1019.50 1020.03 1020.12 1020.19 1020.31 1020.34 1020.35 1020.75 1020.57 1020.86 1021.06 1021.24 1021.37
1009.26 1009.58 1009.81 1010.18 1010.57 1011.00 1011.45 1011.76 1012.05 1012.48 1012.83 1013.21 1013.56 1013.88 1014.04 1014.19 1014.49 1014.66 1015.02 1015.77 1016.59 1016.86 1017.63 1019.15 1019.58 1020.09 1020.56 1020.61 1020.76 1020.69 1020.72 1021.11 1021.11 1021.26 1021.57 1021.81 1021.75 1021.62
1009.07 1009.37 1009.74 1010.17 1010.47 1010.96 1011.82 1012.18 1012.64 1012.88 1013.03 1013.13 1013.46 1013.74 1013.99 1013.97 1014.21 1014.50 1014.95 1015.49 1016.37 1017.57 1017.58 1019.42 1020.29 1020.57 1021.05 1021.27 1021.19 1021.35 1021.17 1021.45 1021.44 1021.87 1021.98 1021.67 1021.36 1021.51
1010.27 1010.32 1010.28 1010.79 1011.08 1011.09 1011.71 1012.75 1013.51 1013.82 1013.79 1013.78 1013.96 1014.50 1014.72 1014.75 1014.73 1014.88 1015.13 1016.16 1017.31 1017.91 1017.98 1019.34 1020.43 1021.26 1021.46 1021.49 1021.66 1021.73 1021.73 1021.82 1021.75 1022.06 1022.15 1021.99 1021.78 1021.96
1011.37 1011.37 1011.37 1011.53 1011.61 1011.52 1011.82 1012.88 1013.95 1014.69 1014.98 1014.89 1015.07 1015.39 1015.41 1015.24 1015.19 1015.20 1015.57 1016.09 1017.35 1018.30 1018.60 1018.86 1020.34 1021.10 1021.88 1022.00 1022.08 1021.90 1022.10 1022.22 1022.11 1022.23 1022.17 1022.04 1022.00 1022.02
1012.10 1012.23 1012.08 1011.88 1011.77 1011.96 1012.25 1012.81 1013.87 1015.02 1015.45 1015.81 1016.03 1016.16 1016.16 1016.20 1015.64 1016.13 1016.02 1016.28 1017.17 1018.28 1018.74 1019.06 1020.03 1020.70 1021.86 1022.21 1022.28 1022.32 1022.55 1022.50 1022.43 1022.43 1022.24 1021.98 1021.80 1022.14
1012.89 1012.81 1013.02 1012.46 1012.29 1012.69 1013.20 1013.71 1014.54 1015.31 1015.91 1016.27 1016.27 1016.82 1017.18 1017.02 1017.15 1016.83 1017.15 1016.73 1017.61 1018.41 1018.74 1018.79 1019.57 1020.20 1020.89 1021.97 1022.51 1022.72 1022.89 1022.99 1022.95 1022.86 1022.48 1022.31 1022.08 1021.93
1013.76 1015.07 1014.14 1013.66 1013.27 1014.01 1014.56 1015.10 1015.38 1015.77 1016.30 1016.62 1016.94 1017.26 1017.82 1018.01 1018.64 1017.78 1018.28 1018.32 1018.30 1019.04 1019.32 1019.02 1019.65 1019.80 1020.46 1021.86 1022.59 1022.97 1023.12 1023.18 1023.10 1023.12 1022.81 1022.37 1022.15 1022.03
1014.79 1016.04 1015.41 1014.79 1015.03 1014.77 1015.56 1016.37 1016.60 1016.72 1016.69 1017.32 1017.71 1018.47 1018.59 1018.92 1018.83 1018.60 1019.27 1019.27 1019.41 1019.71 1019.82 1019.83 1019.99 1020.18 1020.33 1021.26 1022.24 1022.90 1023.19 1023.20 1023.11 1023.05 1022.79 1022.67 1022.48 1022.21
1016.22 1016.54 1016.18 1016.62 1016.76 1016.79 1016.62 1016.99 1017.48 1018.07 1018.21 1018.19 1018.54 1019.41 1019.99 1020.27 1019.65 1019.30 1019.61 1020.09 1020.49 1020.93 1020.50 1020.42 1020.51 1020.55 1021.68 1022.02 1022.13 1022.87 1022.99 1023.21 1023.13 1022.90 1022.71 1022.49 1022.37 1022.12
1017.20 1017.45 1017.67 1017.75 1017.99 1019.16 1018.55 1018.58 1018.88 1019.65 1019.43 1019.03 1019.47 1020.12 1020.57 1020.70 1020.57 1020.03 1020.24 1020.63 1021.19 1021.64 1021.60 1021.56 1021.80 1021.42 1022.23 1022.56 1022.85 1022.98 1023.22 1023.29 1023.24 1022.96 1022.63 1022.46 1022.10 1021.83
1018.68 1018.80 1019.09 1019.40 1019.33 1019.98 1020.14 1020.11 1020.26 1020.58 1020.63 1020.44 1020.72 1020.57 1020.87 1021.39 1021.56 1021.25 1021.11 1021.41 1022.07 1022.42 1022.70 1022.57 1022.50 1022.36 1022.74 1023.28 1023.04 1023.38 1023.43 1023.36 1023.07 1022.74 1022.44 1022.28 1021.89 1021.30
1019.90 1020.44 1020.84 1020.78 1020.70 1021.14 1021.73 1021.68 1021.76 1021.61 1021.32 1021.20 1021.95 1021.99 1021.72 1021.87 1022.10 1022.17 1022.28 1022.49 1022.89 1023.17 1023.37 1023.36 1023.16 1023.12 1023.68 1024.06 1023.55 1023.17 1023.65 1023.19 1022.98 1022.84 1022.56 1022.36 1022.09 1021.30
1021.51 1021.63 1021.83 1021.83 1021.99 1022.15 1022.55 1022.67 1022.83 1022.83 1022.90 1023.15 1022.99 1022.87 1022.79 1022.73 1022.82 1023.06 1023.19 1023.50 1023.67 1023.85 1024.00 1023.95 1023.76 1023.89 1024.30 1024.50 1024.32 1023.63 1023.06 1023.01 1022.73 1022.66 1022.41 1021.89 1021.60 1020.73
1023.07 1023.13 1023.23 1023.40 1023.56 1023.75 1023.84 1024.40 1024.28 1024.55 1024.55 1024.22 1024.25 1024.02 1023.83 1023.57 1023.85 1024.21 1024.36 1024.42 1024.44 1024.46 1024.85 1024.61 1024.32 1024.02 1024.08 1024.53 1024.85 1024.36 1023.41 1022.75 1022.50 1022.42 1022.10 1022.02 1021.46 1020.93
1024.52 1024.66 1024.79 1024.75 1025.00 1025.28 1025.27 1025.56 1025.79 1025.64 1025.48 1025.34 1025.24 1025.24 1025.12 1024.89 1025.18 1025.17 1025.21 1025.04 1025.21 1025.68 1025.60 1025.10 1024.58 1024.23 1024.11 1024.63 1025.10 1024.69 1024.01 1023.44 1022.56 1022.20 1022.11 1021.84 1021.83 1021.44
1025.97 1026.02 1026.10 1026.10 1026.26 1026.49 1026.64 1026.76 1026.97 1026.83 1026.55 1026.56 1026.58 1026.28 1025.99 1025.96 1025.78 1025.78 1025.82 1026.16 1026.31 1026.41 1026.24 1025.98 1025.50 1025.16 1025.15 1025.10 1025.06 1024.68 1024.54 1024.13 1023.03 1022.43 1022.13 1021.77 1021.28 1020.62
Thickness
5598 5597 5594 5592 5590 5590 5589 5588 5586 5578 5580 5583 5584 5587 5586 5585 5586 5584 5582 5580 5579 5578 5575 5572 5568 5564 5560 5558 5554 5552 5549 5547 5547 5546 5546 5546 5545 5545
5598 5595 5592 5591 5589 5586 5584 5584 5584 5583 5581 5584 5586 5587 5587 5587 5585 5581 5580 5578 5577 5575 5573 5569 5566 5562 5559 5557 5554 5552 5550 5548 5547 5546 5545 5545 5544 5543
5596 5594 5591 5589 5587 5584 5584 5583 5582 5582 5583 5585 5585 5584 5584 5582 5580 5577 5577 5576 5573 5570 5568 5565 5564 5561 5559 5555 5552 5551 5549 5547 5545 5544 5543 5542 5541 5540
5595 5593 5591 5588 5586 5584 5583 5583 5583 5582 5581 5581 5578 5579 5580 5578 5574 5571 5573 5571 5569 5567 5565 5563 5561 5557 5554 5553 5550 5548 5546 5543 5542 5540 5539 5538 5536 5535
5595 5594 5592 5589 5586 5584 5583 5584 5582 5580 5578 5577 5576 5573 5573 5572 5568 5566 5566 5566 5566 5564 5562 5556 5555 5553 5551 5547 5545 5543 5539 5538 5536 5537 5535 5534 5532 5529
5594 5593 5592 5589 5586 5584 5582 5580 5580 5580 5577 5576 5574 5570 5569 5567 5565 5564 5563 5563 5562 5556 5552 5549 5544 5539 5535 5535 5533 5531 5529 5527 5526 5525 5521 5519 5516 5514
5591 5589 5589 5588 5584 5581 5578 5577 5578 5577 5575 5573 5570 5567 5565 5564 5565 5564 5563 5560 5554 5550 5541 5534 5530 5528 5522 5520 5519 5516 5515 5513 5509 5509 5505 5501 5497 5493
5587 5586 5586 5582 5580 5576 5574 5573 5573 5572 5571 5569 5567 5565 5564 5564 5561 5561 5559 5552 5549 5541 5535 5522 5518 5514 5509 5507 5505 5504 5502 5497 5495 5492 5487 5483 5480 5478
5580 5579 5578 5575 5574 5572 5563 5561 5558 5557 5556 5563 5564 5563 5561 5557 5554 5554 5551 5548 5543 5526 5527 5510 5503 5499 5494 5491 5490 5487 5487 5483 5480 5475 5471 5470 5469 5464
5556 5559 5563 5560 5558 5561 5557 5549 5543 5542 5543 5545 5545 5541 5540 5539 5539 5538 5536 5525 5516 5512 5512 5501 5491 5483 5480 5477 5473 5470 5468 5465 5462 5456 5453 5451 5449 5444
5537 5540 5543 5542 5541 5545 5544 5535 5528 5525 5525 5527 5527 5525 5525 5526 5525 5524 5520 5518 5507 5498 5494 5493 5479 5471 5462 5459 5456 5455 5450 5447 5444 5440 5437 5435 5433 5428
5523 5523 5525 5528 5529 5528 5527 5525 5518 5510 5509 5508 5507 5507 5506 5505 5510 5505 5505 5505 5496 5488 5482 5479 5468 5461 5449 5443 5441 5437 5432 5428 5425 5422 5420 5418 5415 5410
5505 5506 5505 5511 5512 5510 5506 5503 5499 5495 5492 5491 5492 5488 5485 5486 5484 5487 5482 5486 5478 5471 5467 5464 5457 5449 5442 5430 5423 5418 5415 5410 5407 5403 5400 5396 5392 5388
5483 5473 5483 5488 5492 5486 5481 5477 5478 5478 5475 5474 5473 5471 5466 5465 5459 5466 5460 5459 5457 5449 5445 5444 5439 5436 5429 5412 5404 5400 5395 5390 5387 5382 5379 5377 5373 5367
5458 5449 5457 5463 5462 5465 5459 5454 5455 5455 5457 5454 5452 5445 5444 5442 5442 5442 5434 5434 5432 5427 5423 5421 5416 5412 5410 5398 5389 5380 5376 5370 5366 5361 5359 5355 5351 5346
5431 5430 5433 5432 5432 5431 5435 5434 5431 5427 5428 5430 5427 5417 5413 5413 5420 5421 5417 5411 5406 5399 5400 5400 5397 5393 5381 5375 5371 5362 5358 5350 5346 5343 5338 5335 5330 5325
5405 5405 5404 5405 5405 5397 5403 5404 5403 5399 5403 5406 5401 5396 5392 5390 5393 5397 5393 5386 5379 5376 5376 5374 5370 5369 5359 5353 5347 5342 5336 5330 5325 5320 5316 5311 5310 5304
5380 5380 5379 5377 5379 5376 5375 5376 5376 5375 5374 5377 5376 5376 5372 5367 5365 5367 5366 5361 5356 5354 5350 5348 5346 5343 5337 5328 5325 5318 5313 5308 5304 5301 5297 5289 5285 5286
5358 5354 5353 5355 5357 5353 5347 5348 5347 5350 5353 5353 5346 5345 5349 5347 5344 5342 5340 5337 5332 5329 5326 5323 5322 5317 5308 5298 5301 5297 5289 5286 5280 5277 5275 5268 5261 5260
5332 5333 5332 5332 5332 5331 5327 5327 5326 5327 5325 5322 5322 5322 5322 5323 5322 5319 5317 5312 5310 5307 5303 5300 5298 5292 5281 5274 5270 5272 5272 5264 5259 5253 5251 5249 5247 5245
5306 5305 5304 5303 5303 5302 5301 5297 5300 5298 5297 5300 5299 5300 5300 5302 5298 5294 5290 5287 5286 5285 5276 5273 5271 5269 5265 5257 5245 5242 5248 5246 5240 5233 5230 5222 5217 5219
5282 5280 5279 5280 5278 5276 5276 5274 5273 5275 5276 5277 5276 5274 5273 5274 5269 5268 5265 5264 5261 5252 5249 5248 5247 5245 5242 5235 5227 5216 5220 5217 5216 5213 5212 5205 5194 5187
5255 5253 5252 5252 5252 5250 5249 5248 5247 5248 5250 5249 5248 5248 5247 5247 5246 5244 5240 5234 5230 5226 5223 5219 5219 5217 5213 5210 5204 5202 5197 5193 5192 5190 5189 5188 5182 5180